Regional Weather Roundup
Issued by NWS Newport/Morehead, NC

Current Version | Previous Version | Text Only | Print | Product List | Glossary On
Versions: 1 2 3 4 5 6 7 8 9 10 11 12 13 14 15 16 17 18 19 20 21 22 23 24 25 26 27 28 29 30 31 32 33 34 35 36 37 38 39 40 41 42 43 44 45 46 47 48 49 50
283 ASUS42 KMHX 240813 RWRMHX WEATHER ROUNDUP FOR EASTERN NORTH CAROLINA NATIONAL WEATHER SERVICE NEWPORT/MOREHEAD CITY NC 400 AM EDT MON APR 24 2017 NOTE: "FAIR" INDICATES FEW OR NO CLOUDS BELOW 12,000 FEET WITH NO SIGNIFICANT WEATHER AND/OR OBSTRUCTIONS TO VISIBILITY NCZ015>017-031-032-045>047-102-103-240900- NORTH COAST CITY SKY/WX TMP DP RH WIND PRES REMARKS EDENTON CLOUDY 60 57 90 NE7G16 29.90F ELIZABETH CITY CLOUDY 59 59 100 NE13 29.91F KITTY HAWK CLOUDY 58 58 100 CALM 29.88S FOG MANTEO CLOUDY 59 58 97 E10 29.89S $$ NCZ045>047-081-094-103-104-240900- CENTRAL COAST CITY SKY/WX TMP DP RH WIND PRES REMARKS FRISCO HVY RAIN 67 65 93 SE6 29.87S VSB 3/4 $$ NCZ095-097-098-100-101-240900- SOUTHERN COAST CITY SKY/WX TMP DP RH WIND PRES REMARKS BEAUFORT LGT RAIN 65 65 100 NE7 29.84F CEDAR ISLAND NOT AVBL JACKSONVILLE LGT RAIN 61 61 100 NE9 29.84F PINEY ISLAND CLOUDY N/A N/A N/A NE12 29.85F HAZE WILMINGTON LGT RAIN 63 63 100 NE13 29.80F FOG $$ NCZ011>013-027>030-043-044-078>080-089-090>093-098-240900- COASTAL PLAIN CITY SKY/WX TMP DP RH WIND PRES REMARKS AHOSKIE N/A 54 53 97 NE6 29.93S FOG CLINTON CLOUDY 58 58 100 E6 29.84F FOG ELIZABETHTOWN CLOUDY 58 58 100 E7 29.81F FOG GOLDSBORO CLOUDY 56 56 99 NE10 29.85F FOG GREENVILLE RAIN 55 55 100 NE7 29.91F HAVELOCK NOT AVBL KENANSVILLE LGT RAIN 57 57 100 CALM 29.85F FOG KINSTON CLOUDY 58 58 98 NE9 29.88F NEW BERN CLOUDY 60 60 100 NE8 29.87F RICHLANDS RAIN 59 58 96 NE10 29.85F FOG ROCKY MOUNT CLOUDY 53 53 100 NE8 29.90F FOG WASHINGTON CLOUDY 58 57 98 NE8 29.89F WHITEVILLE RAIN 60 59 97 NE8 29.79S $$ AMZ130-135-150-152-154-156-158-170-250-252-270-ANZ085-086-088-633-658-670-240900- MARINE OBSERVATIONS STATION/POSITION TIME TEMP WIND PRES WAVE SWELL AIR SEA DIR/SP/G HT/PER HT/PER (UTC) (F) (DEG/KT/KT) (MB) (FT/S) (FT/S) CHESAPEAKE LIGHT NOT AVBL 64 E VA BEACH 0750 58 53 70/ 16/ 17 1013.3 7/ 9 5/ 9 DUCK 0748 58 62 60/ 19/ 21 1011.5 2 E DUCK 0800 59 N/A 6/ 7 2/11 OREGON INLET 0742 59 58 30/ 7/ 9 1011.7 13E OREGON INLT 0748 55 N/A 6/ 9 7/ 9 HATTERAS CG 0748 67 67 100/ 6/ 8 1011.2 DIAMOND BUOY 0750 71 78 260/ 4/ 8 1011.3 8/11 7/11 CAPE LOOKOUT 0800 67 CALM / 1 1009.9 BEAUFORT LAB 0748 65 65 10/ 5/ 7 1009.8 30 SE NEW RVR IN 0708 69 140/ 8/ 12 1010.0 30 SE NEW RVR IN 0743 71 N/A 5/ 6 2/11 27 SE WRIGHTSVLE 0708 72 71 170/ 16/ 23 1008.4 5 SE WRIGHTSVLE 0708 68 69 90/ 10/ 17 1009.5 225 S CAPE HAT 0750 73 75 140/ 21/ 25 1010.7 6/ 6 2/11 41 SE CHARLESTON 0750 75 74 170/ 19/ 23 1006.1 6/ 6 2/11 $$

USA.gov is the U.S. government's official web portal to all federal, state and local government web resources and services.